[Iaude] MPEC V199: 2022 SA10 [a=1.29,e=0.17,i=7.4,H=22.49]
    mpec at marsden.cfa.harvard.edu 
    mpec at marsden.cfa.harvard.edu
       
    Sat Nov 11 09:21:18 EST 2023
    
    
  
M.P.E.C. 2023-V199                            Issued 2023 November 11, 14:19 UT
     The Minor Planet Electronic Circulars contain information on unusual
         minor planets, routine data on comets and natural satellites,
         and occasional editorial announcements.  They are published
    on behalf of Division F of the International Astronomical Union by the
          Minor Planet Center, Smithsonian Astrophysical Observatory,
                          Cambridge, MA 02138, U.S.A.
			  
             Prepared using the Tamkin Foundation Computer Network
                              MPC at CFA.HARVARD.EDU
            URL https://www.minorplanetcenter.net/    ISSN 1523-6714
                                   2022 SA10                                    
                           Revision to MPEC 2022-S241                           
Additional Observations:
     K22S10A  C2019 04 04.39895 11 53 33.753-08 09 05.68         21.9 wUEV199F51
     K22S10A  C2019 04 04.41019 11 53 32.033-08 09 06.88         22.1 wUEV199F51
     K22S10A  C2019 04 04.42141 11 53 30.353-08 09 08.61         22.0 wUEV199F51
     K22S10A  C2019 04 04.43265 11 53 28.668-08 09 09.83         22.5 wUEV199F51
     K22S10A ;C2019 04 27.01865 11 11 52.89 -08 53 13.5          22.4 rVEV199W84
     K22S10A ;C2019 04 27.05558 11 11 50.17 -08 53 19.5          22.3 rVEV199W84
     K22S10A ;C2019 05 28.07210 11 11 42.01 -11 45 35.9          23.4 gVEV199W84
     K22S10A ;C2019 05 28.07348 11 11 42.06 -11 45 36.5          23.3 gVEV199W84
Observer details:
F51 Pan-STARRS 1, Haleakala.  Observers J. Bulger, T. Lowe, A. Schultz, M.
    Willman.  Measurers K. Chambers, S. Chastel, T. de Boer, L. Denneau, J.
    Fairlamb, H. Flewelling, M. Huber, C.-C. Lin, E. Magnier, Y. Ramanjooloo,
    R. Wainscoat, R. Weryk.  1.8-m Ritchey-Chretien + CCD.
W84 Cerro Tololo-DECam.  Observer .  Measurer P. VanWylen.  4.0-m reflector +
    CCD.
First and last observations above in comparison with prediction:
Residuals in seconds of arc (or two decimals in degrees), reference and Delta-T
190404 F51 0.07- 0.04-    190528 W84 0.02- 0.03-    MPO733889   +0.02 days
Orbital elements:
2022 SA10                                                Earth MOID = 0.0864 AU
Epoch 2023 Sept. 13.0 TT = JDT 2460200.5                Veres                   
M 265.71851              (2000.0)            P               Q                  
n   0.66944206     Peri.  317.01529     +0.64579407     +0.76335763             
a   1.2941781      Node   353.15925     -0.66094744     +0.54887573             
e   0.1724906      Incl.    7.39700     -0.38222833     +0.34061792             
P   1.47           H   22.49          G   0.15           U   1                  
Residuals in seconds of arc
190404 F51  0.1+  0.1-    220923 807  0.2-  0.0     221013 807  0.2-  0.0
190404 F51  0.2-  0.1+    220923 807  0.1-  0.3+    221013 807  0.4+  0.1-
190404 F51  0.0   0.1-    220925 I52  0.1-  0.0     221013 807  0.2+  0.0
190404 F51  0.2+  0.1+    220925 I52  0.5-  0.8+    221014 F52  0.3-  0.0
190427 W84  0.0   0.1+    220925 I52  0.0   0.0     221014 F52  0.2-  0.1-
190427 W84  0.1+  0.2+    220926 691  0.4+  0.3+    221014 F52  0.1+  0.1+
190528 W84  0.2+  0.1-    220926 691 (0.8+  0.7+)   221021 291  0.1+  0.4+
190528 W84  0.0   0.0     220926 691  0.0   0.2-    221021 291  0.0   0.4-
220923 F52  0.1+  0.0     220928 T12  0.0   0.1-    221021 291  0.3+  0.1+
220923 F52  0.1+  0.1+    220928 T12  0.1-  0.1-    221115 695  0.0   0.1+
220923 F52  0.0   0.1-    220930 807  0.3+  0.1+    221115 695  0.6+  0.0
220923 F52  0.1-  0.1-    220930 807  0.7+  0.0     221115 695  0.3-  0.5-
220923 807  0.0   0.3-    220930 807  0.0   0.2-
Ephemeris:
2022 SA10                a,e,i = 1.29, 0.17, 7                   q = 1.0709
Date    TT    R. A. (2000) Decl.     Delta      r    Elong.  Phase     V
2023 10 12    13 38 43.1 -13 17 03   2.2448  1.2736    10.0     7.8    25.3
...
2023 10 27    14 26 16.6 -17 56 51   2.2114  1.2340     7.8     6.3    25.2
...
2023 11 04    14 53 23.4 -20 13 14   2.1921  1.2130     6.9     5.6    25.1
...
2023 11 10    15 14 36.6 -21 47 17   2.1774  1.1976     6.2     5.2    25.0
2023 11 11    15 18 13.4 -22 02 09   2.1750  1.1951     6.1     5.1    25.0
2023 11 12    15 21 51.4 -22 16 46   2.1725  1.1926     6.1     5.0    25.0
...
2023 11 18    15 44 07.3 -23 38 54   2.1578  1.1777     5.6     4.7    24.9
...
2023 11 26    16 15 00.4 -25 11 25   2.1386  1.1586     5.0     4.3    24.8
...
2023 12 11    17 16 14.7 -27 00 57   2.1057  1.1263     4.4     3.8    24.7
A. U. Tomatic                (C) Copyright 2023 MPC           M.P.E.C. 2023-V199
    
    
More information about the Iaude
mailing list